COSMOS 252 DEB, 3784

Orbit data source: Space-Track

COSMOS 252 DEB, 3784 is space debris in LEO originally from a launch on Fri, 01 Nov 1968 UTC launched from the Tyuratam Missile And Space Complex (TTMTR). Debris objects in space refer to the collection of defunct objects orbiting the Earth. Examples of debris include non-operational satellites, rocket bodies, and fragments generated from explosions, collisions, or faulty payload assembly.

Loading next visibility...
Identifier
3784, 1968-097AW
Orbit
LEO
Country
Flag of CISCIS
Related business
Manufacturer
Unknown
Mission
Spacecraft
Bus & Motor
Unknown
Mass
Unknown
Launch date (UTC)
1968-11-01 (57 years ago)
Launch vehicle
Unknown
Launch site
Tyuratam Missile And Space Complex (TTMTR)
Object type
Payload
Rocket body
Debris
Shape & HBR
Unknown shape, 0.1 m
Radar Cross Section
Small (<0.1 m²)

Expand to show TLE details & history
Last TLE update: 1 day ago

TLE from 1 day ago
0 COSMOS 252 DEB
1 03784U 68097AW  26121.13944867  .00002913  00000-0  17834-2 0  9996
2 03784  62.2388 137.4670 0635150  53.7621 312.0397 13.36965632 63700
Epoch: 2026-05-01T03:20Z
TLE epoch observation values (Epoch: 2026-05-01T03:20:48.365Z)
Latitude
-0.00004°
Longitude
-131.81053°
Altitude
821.077 km
Speed
7.591 km/s
True Right ascension
09h 09m 52s
True Declination
0° 00' 00"
Sunlit
Object was in daylight at epoch
Visualization orbit readout
Latitude
Unknown
Longitude
Unknown
Altitude
Unknown
Speed
Unknown
Apparent Right ascension
Unknown
Apparent Declination
Unknown
Sunlit
N/A
Visualization observer readout
Local Sidereal Time
14:42:07
Azimuth
Unknown
Elevation
Unknown
Doppler factor
Unknown
Orbital elements
Apogee altitude
1,595.794 km
Perigee altitude
643.36 km
Semi-major axis
7,497.714 km
Eccentricity
0.06352
Inclination
62.2388°
RAAN
137.467°
Arg. of periapsis
53.7621°
True anomaly
306.34094°
Mean anomaly
312.0397°
Eccentric anomaly
309.22039°
Mean motion
3.3431 °/min
Orbital period
107.68 mins
BSTAR
0.0017834
Loading maneuver chart data...
Computing Atmospheric mass density...
Loading historical data...
Loading historical data...
Loading historical data...
Loading historical data...
Loading historical data...
Loading historical data...
Loading historical data...

Documentation

Showing up to 5 results
|